[[{"header":{"parameterUnit":"m.s-1","parameterCategory":1,"la1":30.2992,"la2":30.254,"lo1":-89.0895,"lo2":-89.0443,"dy":0.0025,"dx":0.0025,"nx":19,"ny":19,"refTime":"2026-05-24T03:00:00:Z","depth":0,"parameterNumber":2,"parameterNumberName":"U-component_of_WINDS"},"data":[0,0,0,-3.0176,-3.0171,-2.9921,-2.992,-2.964,-2.9638,0,0,0,0,0,0,0,0,0,0,0,-3.0279,-3.0278,-3.0176,-3.0171,-2.9922,-2.992,-2.9641,-2.9638,0,0,0,0,0,0,0,0,0,0,0,-3.0279,-3.0279,-3.0278,-3.017,-2.9922,-2.992,-2.9641,-2.9814,0,0,0,0,0,0,0,0,0,0,-3.0049,-3.0175,-3.0279,-3.0278,-3.0169,-2.9922,-2.992,-2.9822,-2.9803,-2.9772,0,-2.9758,0,-2.9695,-2.9623,-2.9622,0,0,0,-3.0147,-3.019,-3.0097,-3.0277,-3.0167,-2.9923,-3.0027,-2.9811,-2.979,-2.9748,-2.9753,-2.9741,-2.969,-2.9621,-2.962,-2.9534,-2.9535,0,0,-3.0161,-3.0248,-3.0112,-3.0086,-3.0133,-3.0035,-3.002,-2.9798,-2.9806,-2.9752,-2.9734,-2.9685,-2.962,-2.9618,-2.9533,-2.9534,0,0,0,-3.0216,-3.0259,-3.017,-3.0098,-3.0051,-3.0029,-3.0011,-2.9816,-2.978,-2.9731,-2.9682,-2.9618,-2.9615,-2.9532,-2.9534,-2.9656,0,0,0,-3.0223,-3.0291,-3.0178,-3.0229,-3.0056,-2.9932,-3.0036,-2.9796,-2.9768,-2.9683,-2.9618,-2.9613,-2.9531,-2.9533,-2.965,-2.9697,0,0,0,-3.0285,-3.0298,-3.0273,-3.0234,-3.0131,-2.9933,-2.9884,-2.9788,-2.9739,-2.9622,-2.9613,-2.9531,-2.9533,-2.9646,-2.9689,-2.97,0,0,0,-3.0374,-3.0382,-3.0277,-3.0266,-3.0134,-3.0014,-2.9884,-2.9788,-2.9702,-2.9617,-2.9532,-2.9533,-2.9644,-2.9684,-2.9696,-2.9724,-2.9745,0,0,-3.0433,-3.0393,-3.0379,-3.0277,-3.02,-3.0044,-2.9981,-2.9816,-2.9721,-2.96,-2.9597,-2.9652,-2.9689,-2.9699,-2.9835,-2.9852,0,0,0,-3.0427,-3.0419,-3.0379,-3.0304,-3.0183,-3.0081,-2.9918,-2.9856,-2.975,-2.968,-2.9657,-2.9676,-2.9678,-2.9687,-2.9702,-2.9697,-2.9542,-2.9542,-2.9542,-3.0633,-3.0517,-3.0486,-3.0341,-3.027,-3.0103,-3.0033,-2.9921,-2.982,-2.9818,-2.978,-2.9877,-2.9892,-2.9902,-2.9899,-2.9787,-2.9788,-2.9788,-2.9788,-3.0706,-3.0674,-3.0546,-3.0471,-3.0347,-3.0279,-3.0119,-3.0051,-2.9967,-2.9896,-2.9891,-2.9822,-2.9925,-2.9915,-2.9796,-2.9795,-2.9794,-2.9793,-2.9792,-3.0825,-3.079,-3.072,-3.0602,-3.0522,-3.0372,-3.03,-3.0188,-3.0081,-3.0077,-3.0024,-3.0022,-3.0003,-3.0061,-3.0061,-3.0062,-3.0062,-3.0062,-3.0062,-3.0977,-3.0894,-3.0849,-3.0724,-3.0662,-3.0565,-3.04,-3.0333,-3.023,-3.0153,-3.0152,-3.0051,-2.9959,-2.9937,-3.0067,-3.0066,-3.0066,-3.0065,-3.0065,-3.1089,-3.1047,-3.0979,-3.0918,-3.076,-3.0688,-3.0548,-3.0423,-3.0352,-3.0319,-3.022,-3.0171,-3.0119,-3.0106,-3.0087,-3.0247,-3.0247,-3.0247,-3.0247,-3.1189,-3.1154,-3.1059,-3.0969,-3.0866,-3.0734,-3.0655,-3.0527,-3.0385,-3.0333,-3.0294,-3.026,-3.0252,-3.0204,-3.0189,-3.0169,-3.0347,-3.0347,-3.0347,-3.125,-3.1201,-3.1158,-3.1026,-3.0895,-3.0784,-3.0706,-3.0602,-3.0433,-3.0349,-3.0289,-3.0285,-3.0228,-3.0216,-3.0128,-3.0108,-3.0069,0,0]},{"header":{"parameterUnit":"m.s-1","parameterCategory":1,"la1":30.2992,"la2":30.254,"lo1":-89.0895,"lo2":-89.0443,"dy":0.0025,"dx":0.0025,"nx":19,"ny":19,"refTime":"2026-05-24T03:00:00:Z","depth":0,"parameterNumber":3,"parameterNumberName":"V-component_of_WINDS"},"data":[0,0,0,3.7939,3.7937,3.7854,3.7854,3.7763,3.7762,0,0,0,0,0,0,0,0,0,0,0,3.7977,3.7977,3.7939,3.7937,3.7855,3.7854,3.7763,3.7762,0,0,0,0,0,0,0,0,0,0,0,3.7977,3.7977,3.7977,3.7937,3.7855,3.7854,3.7763,3.7819,0,0,0,0,0,0,0,0,0,0,3.7896,3.7947,3.7977,3.7977,3.7936,3.7855,3.7854,3.7821,3.7816,3.7809,0,3.7811,0,3.7786,3.7758,3.7758,0,0,0,3.7925,3.7952,3.7918,3.7977,3.7936,3.7855,3.7888,3.7818,3.7811,3.7801,3.7809,3.7805,3.7784,3.7757,3.7757,3.7771,3.7772,0,0,3.7929,3.7969,3.7923,3.7914,3.7934,3.7891,3.7886,3.7814,3.7823,3.7809,3.7803,3.7783,3.7757,3.7756,3.7771,3.7772,0,0,0,3.7951,3.7972,3.7939,3.7919,3.7903,3.7889,3.7883,3.7826,3.7813,3.7802,3.7782,3.7756,3.7756,3.777,3.7771,3.7844,0,0,0,3.7953,3.7985,3.7942,3.7965,3.7905,3.7865,3.7898,3.7818,3.7808,3.7782,3.7756,3.7755,3.7769,3.7771,3.7841,3.7871,0,0,0,3.7977,3.7987,3.7981,3.7967,3.7934,3.7865,3.7847,3.7815,3.7797,3.7757,3.7755,3.7769,3.777,3.7838,3.7866,3.7888,0,0,0,3.8014,3.8043,3.7983,3.8008,3.7935,3.7913,3.7847,3.7827,3.7802,3.7756,3.7769,3.7771,3.7837,3.7863,3.7885,3.7915,3.7932,0,0,3.8073,3.8052,3.8063,3.8007,3.8007,3.7922,3.793,3.7867,3.7823,3.779,3.779,3.7842,3.7866,3.7888,3.8008,3.8022,0,0,0,3.8095,3.8104,3.8096,3.8077,3.8034,3.7998,3.793,3.7907,3.7878,3.7817,3.7854,3.7867,3.7878,3.789,3.7902,3.7909,3.7778,3.7778,3.7778,3.8234,3.8183,3.8198,3.8138,3.812,3.8052,3.8032,3.7988,3.7936,3.7946,3.7936,3.8016,3.8032,3.804,3.8049,3.7947,3.7947,3.7947,3.7948,3.8316,3.8321,3.8258,3.8251,3.8195,3.8185,3.812,3.8085,3.8066,3.8019,3.8026,3.7979,3.8057,3.8061,3.7952,3.7952,3.7951,3.7951,3.795,3.8402,3.8396,3.8371,3.834,3.8321,3.8256,3.8243,3.819,3.814,3.8147,3.8131,3.8129,3.8122,3.8143,3.8144,3.8144,3.8144,3.8144,3.8144,3.8501,3.8471,3.8469,3.8428,3.841,3.8379,3.8312,3.8291,3.8254,3.8216,3.8215,3.8164,3.8075,3.8055,3.8148,3.8148,3.8147,3.8147,3.8147,3.8605,3.8574,3.8572,3.8555,3.8502,3.8487,3.8421,3.8383,3.8358,3.8353,3.83,3.8243,3.8216,3.8206,3.8189,3.8311,3.8311,3.8311,3.8311,3.8678,3.8661,3.8648,3.8624,3.8594,3.8535,3.8531,3.8478,3.8418,3.8398,3.8372,3.8344,3.8337,3.8314,3.8302,3.8285,3.8429,3.843,3.843,3.8739,3.8717,3.8726,3.8672,3.8627,3.8589,3.8583,3.8554,3.8478,3.8433,3.8381,3.8377,3.8331,3.8319,3.8273,3.8256,3.8223,0,0]}]]